| time (UTC) | temp C | wind direction | speed KPH | gust KPH | rain 1hr cm | rain 24hr cm | rain mn cm | humidity % | barometer mb |
| 20260508182555 | 28 | 11 | 8.0 | 16.1 | 0.00 | 0.00 | 0.00 | 15 | 1014.6 |
| 20260508182054 | 28 | 36 | 8.0 | 16.1 | 0.00 | 0.00 | 0.00 | 14 | 1014.6 |
| 20260508181556 | 28 | 13 | 4.8 | 11.3 | 0.00 | 0.00 | 0.00 | 16 | 1014.7 |
| 20260508181055 | 28 | 67 | 1.6 | 11.3 | 0.00 | 0.00 | 0.00 | 16 | 1014.7 |
| 20260508180551 | 27 | 22 | 1.6 | 12.9 | 0.00 | 0.00 | 0.00 | 16 | 1014.8 |
| 20260508180050 | 28 | 336 | 4.8 | 14.5 | 0.00 | 0.00 | 0.00 | 14 | 1014.9 |
| 20260508175547 | 27 | 9 | 4.8 | 16.1 | 0.00 | 0.00 | 0.00 | 15 | 1014.9 |
| 20260508175047 | 27 | 13 | 4.8 | 16.1 | 0.00 | 0.00 | 0.00 | 15 | 1014.9 |
| 20260508174555 | 27 | 15 | 1.6 | 9.7 | 0.00 | 0.00 | 0.00 | 15 | 1015.0 |
| 20260508174045 | 27 | 334 | 6.4 | 9.7 | 0.00 | 0.00 | 0.00 | 15 | 1015.0 |
| 20260508173544 | 27 | 28 | 1.6 | 9.7 | 0.00 | 0.00 | 0.00 | 13 | 1015.1 |
| 20260508173046 | 27 | 59 | 3.2 | 9.7 | 0.00 | 0.00 | 0.00 | 16 | 1015.1 |
| 20260508172541 | 27 | 6 | 1.6 | 12.9 | 0.00 | 0.00 | 0.00 | 15 | 1015.1 |
| 20260508172040 | 26 | 2 | 4.8 | 12.9 | 0.00 | 0.00 | 0.00 | 17 | 1015.2 |
| 20260508171538 | 26 | 357 | 4.8 | 11.3 | 0.00 | 0.00 | 0.00 | 16 | 1015.3 |
| 20260508171036 | 25 | 3 | 4.8 | 12.9 | 0.00 | 0.00 | 0.00 | 18 | 1015.3 |
| 20260508170536 | 25 | 15 | 4.8 | 12.9 | 0.00 | 0.00 | 0.00 | 17 | 1015.4 |
| 20260508170039 | 25 | 351 | 3.2 | 11.3 | 0.00 | 0.00 | 0.00 | 20 | 1015.4 |
| 20260508165532 | 25 | 332 | 6.4 | 11.3 | 0.00 | 0.00 | 0.00 | 19 | 1015.5 |
| 20260508165031 | 24 | 267 | 0.0 | 9.7 | 0.00 | 0.00 | 0.00 | 21 | 1015.5 |
| 20260508164529 | 24 | 276 | 1.6 | 11.3 | 0.00 | 0.00 | 0.00 | 22 | 1015.5 |
| 20260508164029 | 24 | 281 | 6.4 | 11.3 | 0.00 | 0.00 | 0.00 | 21 | 1015.5 |
| 20260508163527 | 23 | 360 | 6.4 | 11.3 | 0.00 | 0.00 | 0.00 | 22 | 1015.5 |
| 20260508163027 | 23 | 309 | 6.4 | 14.5 | 0.00 | 0.00 | 0.00 | 23 | 1015.5 |
| 20260508162524 | 23 | 252 | 6.4 | 14.5 | 0.00 | 0.00 | 0.00 | 24 | 1015.6 |
| 20260508162023 | 23 | 309 | 3.2 | 11.3 | 0.00 | 0.00 | 0.00 | 23 | 1015.6 |
| 20260508161521 | 22 | 305 | 4.8 | 11.3 | 0.00 | 0.00 | 0.00 | 24 | 1015.6 |
| 20260508161020 | 22 | 296 | 1.6 | 9.7 | 0.00 | 0.00 | 0.00 | 24 | 1015.6 |
| 20260508160518 | 22 | 342 | 4.8 | 9.7 | 0.00 | 0.00 | 0.00 | 24 | 1015.7 |
| 20260508160018 | 22 | 286 | 1.6 | 9.7 | 0.00 | 0.00 | 0.00 | 26 | 1015.7 |
| 20260508155515 | 22 | 271 | 3.2 | 8.0 | 0.00 | 0.00 | 0.00 | 25 | 1015.7 |
| 20260508155014 | 21 | 307 | 0.0 | 8.0 | 0.00 | 0.00 | 0.00 | 25 | 1015.6 |
| 20260508154513 | 21 | 317 | 3.2 | 9.7 | 0.00 | 0.00 | 0.00 | 25 | 1015.7 |
| 20260508154011 | 21 | 341 | 3.2 | 9.7 | 0.00 | 0.00 | 0.00 | 26 | 1015.7 |
| 20260508153511 | 21 | 19 | 1.6 | 8.0 | 0.00 | 0.00 | 0.00 | 25 | 1015.7 |
| 20260508153011 | 20 | 359 | 3.2 | 9.7 | 0.00 | 0.00 | 0.00 | 26 | 1015.7 |
| 20260508152507 | 20 | 359 | 4.8 | 9.7 | 0.00 | 0.00 | 0.00 | 26 | 1015.7 |
| 20260508152007 | 20 | 2 | 4.8 | 9.7 | 0.00 | 0.00 | 0.00 | 27 | 1015.8 |
| 20260508151504 | 20 | 21 | 4.8 | 8.0 | 0.00 | 0.00 | 0.00 | 26 | 1015.8 |
| 20260508151004 | 19 | 1 | 1.6 | 9.7 | 0.00 | 0.00 | 0.00 | 26 | 1015.8 |
| 20260508150504 | 19 | 358 | 6.4 | 9.7 | 0.00 | 0.00 | 0.00 | 26 | 1015.8 |
| 20260508150100 | 19 | 315 | 4.8 | 9.7 | 0.00 | 0.00 | 0.00 | 26 | 1015.8 |
| 20260508145603 | 18 | 348 | 3.2 | 9.7 | 0.00 | 0.00 | 0.00 | 28 | 1015.8 |
| 20260508145100 | 18 | 335 | 0.0 | 8.0 | 0.00 | 0.00 | 0.00 | 30 | 1015.8 |
| 20260508144556 | 18 | 322 | 3.2 | 8.0 | 0.00 | 0.00 | 0.00 | 29 | 1015.8 |
| 20260508144054 | 18 | 30 | 1.6 | 6.4 | 0.00 | 0.00 | 0.00 | 32 | 1015.8 |
| 20260508143553 | 17 | 18 | 1.6 | 6.4 | 0.00 | 0.00 | 0.00 | 31 | 1015.8 |
| 20260508143057 | 17 | 36 | 1.6 | 9.7 | 0.00 | 0.00 | 0.00 | 33 | 1015.8 |
| 20260508142550 | 17 | 58 | 1.6 | 9.7 | 0.00 | 0.00 | 0.00 | 33 | 1015.8 |
| 20260508142048 | 16 | 7 | 3.2 | 9.7 | 0.00 | 0.00 | 0.00 | 33 | 1015.8 |
| 20260508141547 | 16 | 3 | 4.8 | 12.9 | 0.00 | 0.00 | 0.00 | 34 | 1015.7 |
| 20260508141047 | 16 | 7 | 4.8 | 14.5 | 0.00 | 0.00 | 0.00 | 34 | 1015.7 |
| 20260508140546 | 16 | 42 | 6.4 | 14.5 | 0.00 | 0.00 | 0.00 | 35 | 1015.7 |
| 20260508140054 | 15 | 5 | 6.4 | 11.3 | 0.00 | 0.00 | 0.00 | 36 | 1015.6 |
| 20260508135548 | 15 | 1 | 4.8 | 12.9 | 0.00 | 0.00 | 0.00 | 37 | 1015.6 |
| 20260508135044 | 15 | 17 | 4.8 | 12.9 | 0.00 | 0.00 | 0.00 | 38 | 1015.5 |
| 20260508134550 | 15 | 17 | 3.2 | 11.3 | 0.00 | 0.00 | 0.00 | 39 | 1015.6 |
| 20260508134042 | 14 | 24 | 3.2 | 8.0 | 0.00 | 0.00 | 0.00 | 40 | 1015.5 |
| 20260508133545 | 14 | 7 | 3.2 | 8.0 | 0.00 | 0.00 | 0.00 | 40 | 1015.4 |
| 20260508133042 | 14 | 7 | 3.2 | 8.0 | 0.00 | 0.00 | 0.00 | 42 | 1015.4 |
| 20260508132541 | 13 | 51 | 0.0 | 3.2 | 0.00 | 0.00 | 0.00 | 43 | 1015.3 |
| 20260508132041 | 13 | 55 | 0.0 | 6.4 | 0.00 | 0.00 | 0.00 | 43 | 1015.3 |
| 20260508131541 | 13 | 59 | 1.6 | 4.8 | 0.00 | 0.00 | 0.00 | 45 | 1015.3 |
| 20260508131041 | 13 | 77 | 1.6 | 6.4 | 0.00 | 0.00 | 0.00 | 49 | 1015.3 |
| 20260508130543 | 13 | 113 | 0.0 | 1.6 | 0.00 | 0.00 | 0.00 | 49 | 1015.2 |
| 20260508130058 | 12 | 113 | 0.0 | 1.6 | 0.00 | 0.00 | 0.00 | 49 | 1015.1 |
| 20260508125540 | 12 | 113 | 0.0 | 1.6 | 0.00 | 0.00 | 0.00 | 50 | 1015.1 |
| 20260508125039 | 12 | 113 | 0.0 | 1.6 | 0.00 | 0.00 | 0.00 | 50 | 1015.0 |
| 20260508124547 | 12 | 113 | 0.0 | 1.6 | 0.00 | 0.00 | 0.00 | 52 | 1015.0 |
| 20260508124041 | 11 | 113 | 0.0 | 0.0 | 0.00 | 0.00 | 0.00 | 54 | 1014.9 |
| 20260508123537 | 11 | 113 | 0.0 | 0.0 | 0.00 | 0.00 | 0.00 | 52 | 1014.8 |
| 20260508123050 | 11 | 113 | 0.0 | 0.0 | 0.00 | 0.00 | 0.00 | 53 | 1014.8 |
| 20260508122536 | 11 | 113 | 0.0 | 0.0 | 0.00 | 0.00 | 0.00 | 51 | 1014.7 |
| 20260508122035 | 12 | 113 | 0.0 | 0.0 | 0.00 | 0.00 | 0.00 | 50 | 1014.7 |
| 20260508121540 | 12 | 113 | 0.0 | 1.6 | 0.00 | 0.00 | 0.00 | 47 | 1014.6 |
| 20260508121033 | 12 | 113 | 0.0 | 1.6 | 0.00 | 0.00 | 0.00 | 47 | 1014.6 |
| 20260508120533 | 12 | 113 | 0.0 | 3.2 | 0.00 | 0.00 | 0.00 | 46 | 1014.6 |
| 20260508120033 | 12 | 113 | 1.6 | 3.2 | 0.00 | 0.00 | 0.00 | 47 | 1014.6 |
| 20260508115531 | 12 | 113 | 0.0 | 1.6 | 0.00 | 0.00 | 0.00 | 47 | 1014.6 |
| 20260508115031 | 12 | 113 | 0.0 | 1.6 | 0.00 | 0.00 | 0.00 | 49 | 1014.6 |
| 20260508114532 | 12 | 113 | 0.0 | 1.6 | 0.00 | 0.00 | 0.00 | 49 | 1014.5 |
| 20260508114030 | 12 | 113 | 0.0 | 1.6 | 0.00 | 0.00 | 0.00 | 48 | 1014.6 |
| 20260508113531 | 12 | 113 | 0.0 | 1.6 | 0.00 | 0.00 | 0.00 | 49 | 1014.5 |
| 20260508113030 | 12 | 113 | 0.0 | 1.6 | 0.00 | 0.00 | 0.00 | 48 | 1014.5 |
| 20260508112529 | 13 | 113 | 0.0 | 0.0 | 0.00 | 0.00 | 0.00 | 47 | 1014.6 |
| 20260508112029 | 13 | 113 | 0.0 | 1.6 | 0.00 | 0.00 | 0.00 | 47 | 1014.6 |
| 20260508111529 | 13 | 113 | 0.0 | 3.2 | 0.00 | 0.00 | 0.00 | 46 | 1014.6 |
| 20260508111028 | 13 | 113 | 0.0 | 3.2 | 0.00 | 0.00 | 0.00 | 46 | 1014.6 |
| 20260508110527 | 13 | 113 | 0.0 | 1.6 | 0.00 | 0.00 | 0.00 | 44 | 1014.6 |
| 20260508110029 | 13 | 113 | 0.0 | 1.6 | 0.00 | 0.00 | 0.00 | 44 | 1014.6 |
| 20260508105527 | 13 | 113 | 0.0 | 1.6 | 0.00 | 0.00 | 0.00 | 43 | 1014.6 |
| 20260508105030 | 14 | 113 | 0.0 | 1.6 | 0.00 | 0.00 | 0.00 | 43 | 1014.6 |
| 20260508104528 | 14 | 113 | 0.0 | 3.2 | 0.00 | 0.00 | 0.00 | 41 | 1014.5 |
| 20260508104026 | 14 | 113 | 0.0 | 3.2 | 0.00 | 0.00 | 0.00 | 42 | 1014.4 |
| 20260508103526 | 14 | 113 | 0.0 | 3.2 | 0.00 | 0.00 | 0.00 | 42 | 1014.4 |
| 20260508103027 | 15 | 113 | 0.0 | 8.0 | 0.00 | 0.00 | 0.00 | 41 | 1014.5 |
| 20260508102528 | 15 | 113 | 0.0 | 9.7 | 0.00 | 0.00 | 0.00 | 39 | 1014.4 |
| 20260508102026 | 15 | 122 | 4.8 | 12.9 | 0.00 | 0.00 | 0.00 | 38 | 1014.5 |
| 20260508101525 | 15 | 111 | 4.8 | 12.9 | 0.00 | 0.00 | 0.00 | 38 | 1014.5 |
| 20260508101025 | 15 | 105 | 3.2 | 9.7 | 0.00 | 0.00 | 0.00 | 38 | 1014.5 |
| 20260508100524 | 15 | 109 | 3.2 | 11.3 | 0.00 | 0.00 | 0.00 | 38 | 1014.5 |
| 20260508100025 | 14 | 121 | 4.8 | 9.7 | 0.00 | 0.00 | 0.00 | 40 | 1014.6 |
| 20260508095522 | 13 | 80 | 1.6 | 4.8 | 0.00 | 0.00 | 0.00 | 41 | 1014.6 |
| 20260508095025 | 13 | 51 | 0.0 | 6.4 | 0.00 | 0.00 | 0.00 | 41 | 1014.6 |
| 20260508094539 | 13 | 51 | 1.6 | 8.0 | 0.00 | 0.00 | 0.00 | 40 | 1014.6 |
| 20260508094022 | 13 | 55 | 1.6 | 9.7 | 0.00 | 0.00 | 0.00 | 41 | 1014.6 |
| 20260508093522 | 13 | 52 | 3.2 | 8.0 | 0.00 | 0.00 | 0.00 | 42 | 1014.7 |
| 20260508093025 | 13 | 50 | 1.6 | 8.0 | 0.00 | 0.00 | 0.00 | 42 | 1014.7 |
| 20260508092522 | 13 | 44 | 0.0 | 4.8 | 0.00 | 0.00 | 0.00 | 42 | 1014.7 |
| 20260508092019 | 13 | 41 | 1.6 | 4.8 | 0.00 | 0.00 | 0.00 | 42 | 1014.8 |
| 20260508091537 | 13 | 41 | 0.0 | 3.2 | 0.00 | 0.00 | 0.00 | 42 | 1014.8 |
| 20260508091018 | 12 | 41 | 0.0 | 3.2 | 0.00 | 0.00 | 0.00 | 43 | 1014.9 |
| 20260508090518 | 12 | 41 | 0.0 | 1.6 | 0.00 | 0.00 | 0.00 | 42 | 1015.0 |
| 20260508090016 | 13 | 41 | 0.0 | 1.6 | 0.00 | 0.00 | 0.00 | 42 | 1015.0 |
| 20260508085517 | 13 | 41 | 0.0 | 1.6 | 0.00 | 0.00 | 0.00 | 40 | 1015.1 |
| 20260508085017 | 13 | 41 | 0.0 | 1.6 | 0.00 | 0.00 | 0.00 | 39 | 1015.1 |
| 20260508084514 | 13 | 41 | 0.0 | 6.4 | 0.00 | 0.00 | 0.00 | 37 | 1014.9 |
| 20260508084014 | 13 | 41 | 0.0 | 6.4 | 0.00 | 0.00 | 0.00 | 37 | 1014.9 |
| 20260508083514 | 13 | 101 | 1.6 | 4.8 | 0.00 | 0.00 | 0.00 | 38 | 1014.9 |
| 20260508083015 | 13 | 101 | 0.0 | 0.0 | 0.00 | 0.00 | 0.00 | 39 | 1015.0 |
| 20260508082514 | 13 | 101 | 0.0 | 0.0 | 0.00 | 0.00 | 0.00 | 38 | 1015.0 |
| 20260508082011 | 13 | 101 | 0.0 | 0.0 | 0.00 | 0.00 | 0.00 | 37 | 1014.9 |
| 20260508081525 | 13 | 101 | 0.0 | 1.6 | 0.00 | 0.00 | 0.00 | 36 | 1014.9 |
| 20260508081014 | 13 | 101 | 0.0 | 3.2 | 0.00 | 0.00 | 0.00 | 36 | 1014.9 |
| 20260508080510 | 13 | 101 | 0.0 | 3.2 | 0.00 | 0.00 | 0.00 | 36 | 1015.0 |
| 20260508080009 | 13 | 101 | 0.0 | 3.2 | 0.00 | 0.00 | 0.00 | 37 | 1015.1 |
| 20260508075508 | 13 | 101 | 0.0 | 3.2 | 0.00 | 0.00 | 0.00 | 38 | 1015.2 |
| 20260508075007 | 13 | 101 | 0.0 | 3.2 | 0.00 | 0.00 | 0.00 | 37 | 1015.2 |
| 20260508074509 | 13 | 101 | 0.0 | 1.6 | 0.00 | 0.00 | 0.00 | 39 | 1015.2 |
| 20260508074007 | 14 | 101 | 0.0 | 1.6 | 0.00 | 0.00 | 0.00 | 38 | 1015.1 |
| 20260508073507 | 13 | 101 | 0.0 | 1.6 | 0.00 | 0.00 | 0.00 | 38 | 1015.2 |
| 20260508073008 | 14 | 101 | 0.0 | 8.0 | 0.00 | 0.00 | 0.00 | 37 | 1015.2 |
| 20260508072506 | 14 | 101 | 3.2 | 8.0 | 0.00 | 0.00 | 0.00 | 37 | 1015.3 |
| 20260508072005 | 14 | 75 | 0.0 | 3.2 | 0.00 | 0.00 | 0.00 | 37 | 1015.3 |
| 20260508071512 | 15 | 75 | 0.0 | 1.6 | 0.00 | 0.00 | 0.00 | 36 | 1015.3 |
| 20260508071003 | 15 | 75 | 0.0 | 1.6 | 0.00 | 0.00 | 0.00 | 36 | 1015.2 |
| 20260508070503 | 15 | 75 | 0.0 | 1.6 | 0.00 | 0.00 | 0.00 | 37 | 1015.3 |
| 20260508070002 | 15 | 75 | 0.0 | 1.6 | 0.00 | 0.00 | 0.00 | 36 | 1015.3 |
| 20260508065503 | 15 | 75 | 0.0 | 1.6 | 0.00 | 0.00 | 0.00 | 35 | 1015.3 |
| 20260508065000 | 15 | 75 | 0.0 | 1.6 | 0.00 | 0.00 | 0.00 | 34 | 1015.3 |
| 20260508064600 | 15 | 75 | 0.0 | 1.6 | 0.00 | 0.00 | 0.00 | 34 | 1015.2 |
| 20260508064100 | 15 | 75 | 0.0 | 3.2 | 0.00 | 0.00 | 0.00 | 34 | 1015.2 |
| 20260508063559 | 15 | 75 | 0.0 | 3.2 | 0.00 | 0.00 | 0.00 | 35 | 1015.3 |
| 20260508063058 | 15 | 37 | 0.0 | 3.2 | 0.00 | 0.00 | 0.00 | 33 | 1015.3 |
| 20260508062557 | 15 | 37 | 0.0 | 1.6 | 0.00 | 0.00 | 0.00 | 34 | 1015.1 |
| 20260508062057 | 16 | 37 | 0.0 | 1.6 | 0.00 | 0.00 | 0.00 | 33 | 1015.2 |
| 20260508061557 | 15 | 37 | 0.0 | 3.2 | 0.00 | 0.00 | 0.00 | 32 | 1015.2 |
| 20260508061057 | 15 | 37 | 0.0 | 3.2 | 0.00 | 0.00 | 0.00 | 33 | 1015.2 |
| 20260508060555 | 15 | 37 | 0.0 | 3.2 | 0.00 | 0.00 | 0.00 | 34 | 1015.2 |
| 20260508060053 | 16 | 37 | 0.0 | 3.2 | 0.00 | 0.00 | 0.00 | 33 | 1015.1 |
| 20260508055557 | 16 | 37 | 0.0 | 3.2 | 0.00 | 0.00 | 0.00 | 31 | 1015.1 |
| 20260508055053 | 16 | 37 | 0.0 | 1.6 | 0.00 | 0.00 | 0.00 | 30 | 1015.0 |
| 20260508054607 | 17 | 37 | 0.0 | 3.2 | 0.00 | 0.00 | 0.00 | 30 | 1014.9 |
| 20260508054051 | 17 | 37 | 0.0 | 3.2 | 0.00 | 0.00 | 0.00 | 29 | 1015.0 |
| 20260508053552 | 17 | 37 | 0.0 | 3.2 | 0.00 | 0.00 | 0.00 | 29 | 1015.0 |
| 20260508053054 | 17 | 37 | 1.6 | 3.2 | 0.00 | 0.00 | 0.00 | 28 | 1015.0 |
| 20260508052553 | 17 | 38 | 0.0 | 3.2 | 0.00 | 0.00 | 0.00 | 29 | 1014.9 |
| 20260508052053 | 17 | 38 | 0.0 | 3.2 | 0.00 | 0.00 | 0.00 | 29 | 1014.9 |
| 20260508051552 | 17 | 38 | 0.0 | 6.4 | 0.00 | 0.00 | 0.00 | 30 | 1014.9 |
| 20260508051052 | 17 | 38 | 0.0 | 6.4 | 0.00 | 0.00 | 0.00 | 31 | 1015.0 |
| 20260508050553 | 17 | 38 | 0.0 | 1.6 | 0.00 | 0.00 | 0.00 | 30 | 1015.1 |
| 20260508050054 | 17 | 38 | 0.0 | 1.6 | 0.00 | 0.00 | 0.00 | 30 | 1015.1 |
| 20260508045550 | 17 | 38 | 0.0 | 1.6 | 0.00 | 0.00 | 0.00 | 30 | 1015.1 |
| 20260508045050 | 17 | 38 | 0.0 | 3.2 | 0.00 | 0.00 | 0.00 | 28 | 1015.2 |
| 20260508044557 | 17 | 38 | 0.0 | 3.2 | 0.00 | 0.00 | 0.00 | 28 | 1015.2 |
| 20260508044050 | 17 | 38 | 0.0 | 1.6 | 0.00 | 0.00 | 0.00 | 29 | 1015.2 |
| 20260508043550 | 17 | 38 | 0.0 | 1.6 | 0.00 | 0.00 | 0.00 | 28 | 1015.2 |
| 20260508043050 | 17 | 38 | 0.0 | 1.6 | 0.00 | 0.00 | 0.00 | 29 | 1015.2 |
| 20260508042550 | 18 | 38 | 0.0 | 1.6 | 0.00 | 0.00 | 0.00 | 28 | 1015.2 |
| 20260508042049 | 18 | 38 | 0.0 | 3.2 | 0.00 | 0.00 | 0.00 | 26 | 1015.1 |
| 20260508041550 | 18 | 38 | 0.0 | 3.2 | 0.00 | 0.00 | 0.00 | 26 | 1015.1 |
| 20260508041050 | 18 | 38 | 0.0 | 6.4 | 0.00 | 0.00 | 0.00 | 27 | 1015.1 |
| 20260508040550 | 18 | 38 | 1.6 | 6.4 | 0.00 | 0.00 | 0.00 | 25 | 1015.0 |
| 20260508040050 | 18 | 38 | 1.6 | 3.2 | 0.00 | 0.00 | 0.00 | 26 | 1015.0 |
| 20260508035549 | 18 | 38 | 0.0 | 6.4 | 0.00 | 0.00 | 0.00 | 26 | 1014.9 |
| 20260508035048 | 18 | 38 | 1.6 | 6.4 | 0.00 | 0.00 | 0.00 | 26 | 1014.9 |
| 20260508034549 | 18 | 38 | 1.6 | 4.8 | 0.00 | 0.00 | 0.00 | 25 | 1014.9 |
| 20260508034048 | 18 | 38 | 1.6 | 6.4 | 0.00 | 0.00 | 0.00 | 26 | 1014.8 |
| 20260508033110 | 19 | 25 | 0.0 | 6.4 | 0.00 | 0.00 | 0.00 | 26 | 1014.7 |
| 20260508032546 | 19 | 25 | 1.6 | 6.4 | 0.00 | 0.00 | 0.00 | 27 | 1014.7 |
| 20260508032048 | 19 | 281 | 0.0 | 3.2 | 0.00 | 0.00 | 0.00 | 27 | 1014.5 |
| 20260508031545 | 19 | 281 | 0.0 | 1.6 | 0.00 | 0.00 | 0.00 | 26 | 1014.4 |
| 20260508031049 | 20 | 281 | 0.0 | 1.6 | 0.00 | 0.00 | 0.00 | 26 | 1014.4 |
| 20260508030545 | 20 | 281 | 0.0 | 1.6 | 0.00 | 0.00 | 0.00 | 27 | 1014.4 |
| 20260508030053 | 20 | 281 | 0.0 | 1.6 | 0.00 | 0.00 | 0.00 | 27 | 1014.4 |
| 20260508025544 | 20 | 281 | 0.0 | 3.2 | 0.00 | 0.00 | 0.00 | 24 | 1014.3 |
| 20260508025043 | 21 | 281 | 0.0 | 3.2 | 0.00 | 0.00 | 0.00 | 22 | 1014.2 |
| 20260508024559 | 21 | 281 | 0.0 | 3.2 | 0.00 | 0.00 | 0.00 | 25 | 1014.2 |
| 20260508024046 | 21 | 281 | 0.0 | 1.6 | 0.00 | 0.00 | 0.00 | 22 | 1014.2 |
| 20260508023544 | 21 | 281 | 0.0 | 0.0 | 0.00 | 0.00 | 0.00 | 22 | 1014.2 |
| 20260508023043 | 21 | 281 | 0.0 | 0.0 | 0.00 | 0.00 | 0.00 | 23 | 1014.2 |
| 20260508022544 | 21 | 281 | 0.0 | 0.0 | 0.00 | 0.00 | 0.00 | 22 | 1014.1 |
| 20260508022043 | 21 | 281 | 0.0 | 1.6 | 0.00 | 0.00 | 0.00 | 22 | 1014.0 |
| 20260508021544 | 22 | 281 | 0.0 | 1.6 | 0.00 | 0.00 | 0.00 | 22 | 1014.0 |
| 20260508021044 | 22 | 281 | 0.0 | 1.6 | 0.00 | 0.00 | 0.00 | 22 | 1013.9 |
| 20260508020543 | 22 | 281 | 0.0 | 3.2 | 0.00 | 0.00 | 0.00 | 22 | 1013.9 |
| 20260508015542 | 23 | 281 | 0.0 | 3.2 | 0.00 | 0.00 | 0.00 | 19 | 1013.9 |
| 20260508015041 | 23 | 281 | 0.0 | 3.2 | 0.00 | 0.00 | 0.00 | 23 | 1013.9 |
| 20260508014545 | 23 | 281 | 0.0 | 3.2 | 0.00 | 0.00 | 0.00 | 20 | 1013.8 |
| 20260508014040 | 23 | 281 | 0.0 | 3.2 | 0.00 | 0.00 | 0.00 | 19 | 1013.8 |
| 20260508013541 | 23 | 281 | 1.6 | 3.2 | 0.00 | 0.00 | 0.00 | 17 | 1013.8 |
| 20260508013041 | 23 | 281 | 0.0 | 3.2 | 0.00 | 0.00 | 0.00 | 18 | 1013.7 |
| 20260508012541 | 24 | 281 | 0.0 | 3.2 | 0.00 | 0.00 | 0.00 | 16 | 1013.7 |
| 20260508012041 | 24 | 281 | 0.0 | 3.2 | 0.00 | 0.00 | 0.00 | 16 | 1013.7 |
| 20260508011544 | 25 | 281 | 0.0 | 6.4 | 0.00 | 0.00 | 0.00 | 14 | 1013.7 |
| 20260508011045 | 25 | 281 | 3.2 | 9.7 | 0.00 | 0.00 | 0.00 | 14 | 1013.8 |
| 20260508010539 | 25 | 245 | 3.2 | 8.0 | 0.00 | 0.00 | 0.00 | 15 | 1013.8 |
| 20260508010039 | 25 | 300 | 3.2 | 8.0 | 0.00 | 0.00 | 0.00 | 14 | 1013.8 |
| 20260508005538 | 25 | 252 | 3.2 | 9.7 | 0.00 | 0.00 | 0.00 | 14 | 1013.9 |
| 20260508005039 | 25 | 264 | 4.8 | 9.7 | 0.00 | 0.00 | 0.00 | 14 | 1013.9 |
| 20260508004538 | 25 | 248 | 3.2 | 12.9 | 0.00 | 0.00 | 0.00 | 14 | 1013.9 |
| 20260508004038 | 26 | 198 | 6.4 | 12.9 | 0.00 | 0.00 | 0.00 | 14 | 1013.9 |
| 20260508003537 | 26 | 265 | 1.6 | 9.7 | 0.00 | 0.00 | 0.00 | 14 | 1013.9 |
| 20260508003037 | 26 | 248 | 3.2 | 12.9 | 0.00 | 0.00 | 0.00 | 14 | 1013.9 |
| 20260508002536 | 26 | 238 | 4.8 | 16.1 | 0.00 | 0.00 | 0.00 | 14 | 1013.9 |
| 20260508002036 | 26 | 178 | 9.7 | 19.3 | 0.00 | 0.00 | 0.00 | 13 | 1014.0 |
| 20260508001547 | 26 | 194 | 9.7 | 19.3 | 0.00 | 0.00 | 0.00 | 14 | 1013.9 |
| 20260508001036 | 26 | 127 | 1.6 | 17.7 | 0.00 | 0.00 | 0.00 | 15 | 1013.9 |
| 20260508000535 | 26 | 217 | 9.7 | 17.7 | 0.00 | 0.00 | 0.00 | 14 | 1014.0 |
| 20260508000034 | 26 | 192 | 6.4 | 14.5 | 0.00 | 0.00 | 0.00 | 14 | 1014.0 |
| 20260507235534 | 26 | 175 | 8.0 | 16.1 | 0.00 | 0.00 | 0.00 | 15 | 1014.1 |
| 20260507235034 | 26 | 170 | 8.0 | 19.3 | 0.00 | 0.00 | 0.00 | 14 | 1014.0 |
| 20260507234533 | 26 | 195 | 8.0 | 19.3 | 0.00 | 0.00 | 0.00 | 14 | 1014.1 |
| 20260507234032 | 26 | 171 | 3.2 | 12.9 | 0.00 | 0.00 | 0.00 | 14 | 1014.1 |
| 20260507233531 | 26 | 211 | 6.4 | 14.5 | 0.00 | 0.00 | 0.00 | 14 | 1014.1 |
| 20260507233034 | 26 | 215 | 8.0 | 14.5 | 0.00 | 0.00 | 0.00 | 14 | 1014.2 |
| 20260507232531 | 26 | 247 | 9.7 | 14.5 | 0.00 | 0.00 | 0.00 | 14 | 1014.1 |
| 20260507232030 | 27 | 237 | 6.4 | 14.5 | 0.00 | 0.00 | 0.00 | 14 | 1014.2 |
| 20260507231529 | 27 | 210 | 4.8 | 12.9 | 0.00 | 0.00 | 0.00 | 15 | 1014.1 |
| 20260507231029 | 27 | 266 | 3.2 | 19.3 | 0.00 | 0.00 | 0.00 | 14 | 1014.2 |
| 20260507230529 | 27 | 261 | 3.2 | 9.7 | 0.00 | 0.00 | 0.00 | 13 | 1014.3 |
| 20260507230032 | 27 | 302 | 3.2 | 12.9 | 0.00 | 0.00 | 0.00 | 14 | 1014.3 |
| 20260507225528 | 26 | 169 | 6.4 | 12.9 | 0.00 | 0.00 | 0.00 | 13 | 1014.4 |
| 20260507225027 | 27 | 138 | 6.4 | 14.5 | 0.00 | 0.00 | 0.00 | 13 | 1014.3 |
| 20260507224531 | 26 | 161 | 6.4 | 19.3 | 0.00 | 0.00 | 0.00 | 13 | 1014.4 |
| 20260507224027 | 27 | 202 | 9.7 | 19.3 | 0.00 | 0.00 | 0.00 | 14 | 1014.4 |
| 20260507223525 | 27 | 137 | 9.7 | 20.9 | 0.00 | 0.00 | 0.00 | 13 | 1014.5 |
| 20260507223025 | 27 | 194 | 11.3 | 20.9 | 0.00 | 0.00 | 0.00 | 14 | 1014.4 |
| 20260507222527 | 27 | 152 | 11.3 | 17.7 | 0.00 | 0.00 | 0.00 | 14 | 1014.5 |
| 20260507222023 | 26 | 116 | 8.0 | 20.9 | 0.00 | 0.00 | 0.00 | 14 | 1014.5 |
| 20260507221525 | 26 | 196 | 9.7 | 20.9 | 0.00 | 0.00 | 0.00 | 14 | 1014.7 |
| 20260507221022 | 27 | 212 | 8.0 | 19.3 | 0.00 | 0.00 | 0.00 | 15 | 1014.6 |
| 20260507220521 | 27 | 220 | 9.7 | 19.3 | 0.00 | 0.00 | 0.00 | 14 | 1014.7 |
| 20260507220021 | 27 | 170 | 9.7 | 19.3 | 0.00 | 0.00 | 0.00 | 14 | 1014.7 |
| 20260507215520 | 27 | 193 | 11.3 | 16.1 | 0.00 | 0.00 | 0.00 | 14 | 1014.8 |
| 20260507215020 | 27 | 211 | 6.4 | 12.9 | 0.00 | 0.00 | 0.00 | 14 | 1014.8 |
| 20260507214519 | 27 | 101 | 6.4 | 12.9 | 0.00 | 0.00 | 0.00 | 15 | 1014.8 |
| 20260507214019 | 27 | 300 | 6.4 | 12.9 | 0.00 | 0.00 | 0.00 | 15 | 1014.9 |
| 20260507213518 | 27 | 207 | 6.4 | 17.7 | 0.00 | 0.00 | 0.00 | 14 | 1015.0 |
| 20260507213020 | 27 | 215 | 8.0 | 17.7 | 0.00 | 0.00 | 0.00 | 15 | 1015.0 |
| 20260507212519 | 27 | 261 | 6.4 | 17.7 | 0.00 | 0.00 | 0.00 | 13 | 1015.0 |
| 20260507212022 | 27 | 213 | 9.7 | 17.7 | 0.00 | 0.00 | 0.00 | 15 | 1015.0 |
| 20260507211529 | 27 | 180 | 3.2 | 12.9 | 0.00 | 0.00 | 0.00 | 16 | 1015.1 |
| 20260507211016 | 27 | 166 | 6.4 | 11.3 | 0.00 | 0.00 | 0.00 | 15 | 1015.1 |
| 20260507210514 | 27 | 69 | 3.2 | 11.3 | 0.00 | 0.00 | 0.00 | 16 | 1015.2 |
| 20260507210014 | 26 | 63 | 1.6 | 8.0 | 0.00 | 0.00 | 0.00 | 16 | 1015.2 |
| 20260507205512 | 26 | 174 | 1.6 | 6.4 | 0.00 | 0.00 | 0.00 | 16 | 1015.3 |
| 20260507205014 | 26 | 348 | 1.6 | 9.7 | 0.00 | 0.00 | 0.00 | 16 | 1015.3 |
| 20260507204511 | 26 | 337 | 3.2 | 14.5 | 0.00 | 0.00 | 0.00 | 16 | 1015.4 |
| 20260507204010 | 26 | 194 | 8.0 | 14.5 | 0.00 | 0.00 | 0.00 | 16 | 1015.5 |
| 20260507203510 | 27 | 265 | 8.0 | 12.9 | 0.00 | 0.00 | 0.00 | 17 | 1015.5 |
| 20260507203008 | 26 | 323 | 4.8 | 12.9 | 0.00 | 0.00 | 0.00 | 17 | 1015.5 |
| 20260507202507 | 26 | 264 | 6.4 | 12.9 | 0.00 | 0.00 | 0.00 | 17 | 1015.7 |
| 20260507202007 | 26 | 224 | 3.2 | 14.5 | 0.00 | 0.00 | 0.00 | 17 | 1015.8 |
| 20260507201506 | 26 | 178 | 8.0 | 16.1 | 0.00 | 0.00 | 0.00 | 18 | 1015.8 |
| 20260507201005 | 26 | 17 | 1.6 | 16.1 | 0.00 | 0.00 | 0.00 | 18 | 1015.9 |
| 20260507200504 | 26 | 133 | 3.2 | 16.1 | 0.00 | 0.00 | 0.00 | 18 | 1016.1 |
| 20260507200002 | 26 | 194 | 6.4 | 11.3 | 0.00 | 0.00 | 0.00 | 18 | 1016.1 |
| 20260507195501 | 26 | 167 | 3.2 | 12.9 | 0.00 | 0.00 | 0.00 | 18 | 1016.2 |
| 20260507195001 | 26 | 210 | 8.0 | 14.5 | 0.00 | 0.00 | 0.00 | 18 | 1016.2 |
| 20260507194613 | 26 | 130 | 6.4 | 14.5 | 0.00 | 0.00 | 0.00 | 18 | 1016.3 |
| 20260507194059 | 26 | 187 | 6.4 | 16.1 | 0.00 | 0.00 | 0.00 | 18 | 1016.4 |
| 20260507193600 | 26 | 272 | 8.0 | 16.1 | 0.00 | 0.00 | 0.00 | 19 | 1016.4 |
| 20260507193100 | 26 | 186 | 3.2 | 12.9 | 0.00 | 0.00 | 0.00 | 20 | 1016.5 |
| 20260507192556 | 25 | 148 | 4.8 | 17.7 | 0.00 | 0.00 | 0.00 | 18 | 1016.6 |
| 20260507192056 | 26 | 195 | 9.7 | 17.7 | 0.00 | 0.00 | 0.00 | 19 | 1016.6 |
| 20260507191602 | 25 | 123 | 9.7 | 16.1 | 0.00 | 0.00 | 0.00 | 19 | 1016.6 |
| 20260507191054 | 25 | 215 | 8.0 | 12.9 | 0.00 | 0.00 | 0.00 | 19 | 1016.8 |
| 20260507190553 | 25 | 169 | 3.2 | 16.1 | 0.00 | 0.00 | 0.00 | 19 | 1016.8 |
| 20260507190053 | 25 | 168 | 11.3 | 16.1 | 0.00 | 0.00 | 0.00 | 19 | 1016.9 |
| 20260507185552 | 25 | 148 | 4.8 | 12.9 | 0.00 | 0.00 | 0.00 | 20 | 1017.0 |
| 20260507185053 | 25 | 175 | 3.2 | 16.1 | 0.00 | 0.00 | 0.00 | 19 | 1017.0 |
| 20260507184550 | 25 | 163 | 8.0 | 16.1 | 0.00 | 0.00 | 0.00 | 20 | 1017.0 |
| 20260507184051 | 24 | 132 | 8.0 | 14.5 | 0.00 | 0.00 | 0.00 | 21 | 1017.1 |
| 20260507183549 | 25 | 184 | 4.8 | 9.7 | 0.00 | 0.00 | 0.00 | 22 | 1017.1 |
| 20260507183055 | 25 | 216 | 3.2 | 9.7 | 0.00 | 0.00 | 0.00 | 22 | 1017.2 |